"startDT [UTC]","vpos","CH4 [ppm]","stdev(CH4) [ppm]","CO2 [ppm]","stdev(CO2) [ppm]","H2O [ppm]","stdev(H2O)","p_LGR [torr]","T_LGR [C]","mt1_LGR [us]","mt2_LGR [us]","T_ECpre [C]","T_EC1 [C]","T_EC2 [C]","p_inlet [hPa]","p_in [hPa]","p_out [hPa]","T_inlet [C]","RH_inlet [%]","dwpt_inlet [C]","T_vent [C]","RH_vent [%]","dwpt_vent [C]","flow_vent [l min-1]","flow_inlet [l min-1]","dwpt_sample [C]","T_room [C]"
2012-12-22 00:00:00,0.0,1.9276,0.0010,-1.00,0.00,-1.0,0.0,138.20,24.06,24.61,36.43,0.04,-272.74,-272.75,-35,545,-921,18.7,1.1,-38.0,18.8,1.1,-37.6,5.73,2.41,-34.1,23.8
2012-12-22 00:01:00,0.0,1.9278,0.0009,-1.00,0.00,-1.0,0.0,138.20,24.06,24.61,36.44,0.04,-272.75,-272.75,-35,545,-921,18.7,1.1,-38.1,18.8,1.1,-37.4,5.73,2.41,-34.1,23.8
2012-12-22 00:02:00,0.0,1.9284,0.0007,-1.00,0.00,-1.0,0.0,138.20,24.06,24.60,36.44,0.04,-272.74,-272.75,-35,545,-922,18.7,1.1,-37.9,18.8,1.1,-37.3,5.73,2.40,-34.1,23.8
2012-12-22 00:03:00,0.0,1.9271,0.0009,-1.00,0.00,-1.0,0.0,138.20,24.06,24.61,36.43,0.04,-272.74,-272.74,-35,545,-921,18.7,1.1,-38.1,18.8,1.1,-37.4,5.73,2.40,-34.1,23.9
2012-12-22 00:04:00,0.0,1.9277,0.0010,-1.00,0.00,-1.0,0.0,138.20,24.07,24.61,36.44,0.04,-272.75,-272.75,-35,545,-921,18.7,1.0,-38.1,18.8,1.1,-37.6,5.73,2.40,-34.1,23.8
2012-12-22 00:05:00,0.0,1.9283,0.0009,-1.00,0.00,-1.0,0.0,138.20,24.07,24.61,36.43,0.04,-272.75,-272.75,-35,545,-921,18.7,1.1,-38.1,18.8,1.1,-37.6,5.73,2.40,-34.1,23.8
2012-12-22 00:06:00,0.0,1.9282,0.0009,-1.00,0.00,-1.0,0.0,138.20,24.07,24.61,36.43,0.04,-272.75,-272.74,-35,545,-921,18.7,1.0,-38.3,18.8,1.1,-37.8,5.73,2.41,-34.1,23.8
2012-12-22 00:07:00,0.0,1.9285,0.0008,-1.00,0.00,-1.0,0.0,138.20,24.08,24.61,36.43,0.04,-272.74,-272.75,-35,545,-922,18.7,1.0,-38.4,18.8,1.1,-37.8,5.73,2.41,-34.1,23.8
2012-12-22 00:08:00,0.0,1.9290,0.0008,-1.00,0.00,-1.0,0.0,138.20,24.08,24.61,36.43,0.04,-272.75,-272.75,-35,545,-921,18.7,1.0,-38.3,18.8,1.1,-37.8,5.73,2.42,-34.1,23.8
2012-12-22 00:09:00,0.0,1.9285,0.0008,-1.00,0.00,-1.0,0.0,138.20,24.08,24.61,36.43,0.04,-272.74,-272.74,-35,545,-921,18.7,1.0,-38.3,18.8,1.1,-37.8,5.73,2.43,-34.1,23.8
2012-12-22 00:10:00,0.0,1.9285,0.0009,-1.00,0.00,-1.0,0.0,138.20,24.08,24.61,36.44,0.04,-272.75,-272.75,-35,545,-921,18.7,1.0,-38.5,18.8,1.1,-38.0,5.73,2.43,-34.1,23.8
2012-12-22 00:11:00,0.0,1.9282,0.0010,-1.00,0.00,-1.0,0.0,138.20,24.07,24.61,36.44,0.04,-272.75,-272.75,-35,545,-922,18.7,1.0,-38.4,18.8,1.1,-37.9,5.73,2.43,-34.1,23.8
2012-12-22 00:12:00,0.0,1.9273,0.0008,-1.00,0.00,-1.0,0.0,138.20,24.07,24.61,36.43,0.04,-272.74,-272.74,-35,545,-921,18.7,1.0,-38.4,18.8,1.1,-37.9,5.73,2.43,-34.1,23.8
2012-12-22 00:13:00,0.0,1.9276,0.0009,-1.00,0.00,-1.0,0.0,138.20,24.07,24.61,36.44,0.04,-272.74,-272.74,-35,545,-921,18.7,1.0,-38.6,18.8,1.0,-38.1,5.73,2.43,-34.1,23.8
2012-12-22 00:14:00,0.0,1.9273,0.0008,-1.00,0.00,-1.0,0.0,138.20,24.07,24.61,36.44,0.04,-272.75,-272.75,-35,545,-922,18.7,1.0,-38.6,18.8,1.0,-38.1,5.73,2.43,-34.1,23.8
2012-12-22 00:15:00,0.0,1.9275,0.0009,-1.00,0.00,-1.0,0.0,138.20,24.07,24.61,36.44,0.04,-272.75,-272.75,-35,545,-921,18.7,1.0,-38.6,18.8,1.1,-38.0,5.73,2.43,-34.1,23.8
2012-12-22 00:16:00,0.0,1.9269,0.0009,-1.00,0.00,-1.0,0.0,138.20,24.06,24.61,36.44,0.04,-272.74,-272.74,-35,545,-921,18.7,1.0,-38.6,18.8,1.1,-38.0,5.73,2.42,-34.1,23.8
2012-12-22 00:17:00,0.0,1.9278,0.0009,-1.00,0.00,-1.0,0.0,138.20,24.06,24.61,36.44,0.04,-272.75,-272.75,-35,545,-922,18.7,1.0,-38.6,18.8,1.0,-38.1,5.73,2.41,-34.1,23.8
2012-12-22 00:18:00,0.0,1.9284,0.0009,-1.00,0.00,-1.0,0.0,138.20,24.07,24.60,36.43,0.04,-272.75,-272.75,-35,545,-921,18.7,1.0,-38.6,18.8,1.0,-38.1,5.73,2.40,-34.1,23.8
2012-12-22 00:19:00,0.0,1.9282,0.0007,-1.00,0.00,-1.0,0.0,138.20,24.07,24.61,36.43,0.04,-272.74,-272.74,-35,545,-921,18.7,1.0,-38.6,18.8,1.1,-38.0,5.73,2.40,-34.2,23.8
2012-12-22 00:20:00,0.0,1.9280,0.0009,-1.00,0.00,-1.0,0.0,138.20,24.07,24.61,36.44,0.04,-272.74,-272.75,-35,545,-921,18.7,1.0,-38.6,18.8,1.0,-38.1,5.73,2.40,-34.1,23.8
2012-12-22 00:21:00,0.0,1.9271,0.0008,-1.00,0.00,-1.0,0.0,138.20,24.07,24.61,36.44,0.04,-272.75,-272.75,-35,545,-921,18.7,1.0,-38.6,18.8,1.1,-38.0,5.73,2.40,-34.1,23.8
2012-12-22 00:22:00,0.0,1.9265,0.0009,-1.00,0.00,-1.0,0.0,138.20,24.06,24.61,36.44,0.04,-272.75,-272.75,-35,545,-921,18.7,1.0,-38.7,18.8,1.1,-38.0,5.73,2.40,-34.1,23.8
2012-12-22 00:23:00,0.0,1.9267,0.0010,-1.00,0.00,-1.0,0.0,138.20,24.06,24.61,36.44,0.04,-272.75,-272.74,-35,545,-921,18.7,1.0,-38.6,18.8,1.0,-38.1,5.73,2.41,-34.1,23.8
2012-12-22 00:24:00,0.0,1.9269,0.0009,-1.00,0.00,-1.0,0.0,138.20,24.06,24.61,36.43,0.04,-272.75,-272.75,-35,545,-922,18.7,1.0,-38.6,18.8,1.0,-38.1,5.73,2.42,-34.2,23.8
2012-12-22 00:25:00,0.0,1.9274,0.0010,-1.00,0.00,-1.0,0.0,138.20,24.06,24.61,36.43,0.04,-272.74,-272.75,-35,545,-922,18.7,1.0,-38.6,18.8,1.1,-38.1,5.73,2.42,-34.1,23.8
2012-12-22 00:26:00,0.0,1.9274,0.0008,-1.00,0.00,-1.0,0.0,138.20,24.07,24.61,36.44,0.04,-272.74,-272.74,-35,545,-921,18.7,1.0,-38.6,18.8,1.0,-38.1,5.73,2.43,-34.2,23.8
2012-12-22 00:27:00,0.0,1.9280,0.0009,-1.00,0.00,-1.0,0.0,138.20,24.07,24.60,36.44,0.04,-272.75,-272.75,-35,545,-921,18.7,1.0,-38.6,18.8,1.0,-38.1,5.73,2.44,-34.2,23.8
2012-12-22 00:28:00,0.0,1.9278,0.0009,-1.00,0.00,-1.0,0.0,138.20,24.07,24.61,36.43,0.04,-272.75,-272.75,-35,545,-922,18.7,1.0,-38.6,18.8,1.0,-38.1,5.73,2.44,-34.2,23.8
2012-12-22 00:29:00,0.0,1.9282,0.0009,-1.00,0.00,-1.0,0.0,138.20,24.07,24.61,36.44,0.04,-272.75,-272.75,-35,545,-922,18.7,1.0,-38.6,18.8,1.1,-38.0,5.73,2.44,-34.2,23.8
2012-12-22 00:30:00,0.0,1.9283,0.0010,-1.00,0.00,-1.0,0.0,138.20,24.08,24.61,36.44,0.04,-272.74,-272.75,-35,545,-921,18.7,1.0,-38.6,18.8,1.1,-38.0,5.73,2.43,-34.2,23.8
2012-12-22 00:31:00,0.0,1.9288,0.0011,-1.00,0.00,-1.0,0.0,138.20,24.08,24.61,36.44,0.04,-272.74,-272.74,-35,545,-921,18.7,1.0,-38.5,18.8,1.0,-38.1,5.73,2.42,-34.2,23.8
2012-12-22 00:32:00,0.0,1.9283,0.0008,-1.00,0.00,-1.0,0.0,138.20,24.08,24.61,36.43,0.04,-272.74,-272.74,-35,545,-921,18.7,1.0,-38.3,18.8,1.1,-38.0,5.73,2.41,-34.2,23.8
2012-12-22 00:33:00,0.0,1.9285,0.0011,-1.00,0.00,-1.0,0.0,138.20,24.07,24.61,36.43,0.04,-272.75,-272.74,-35,545,-921,18.7,1.0,-38.3,18.8,1.1,-37.8,5.73,2.40,-34.2,23.8
2012-12-22 00:34:00,0.0,1.9286,0.0009,-1.00,0.00,-1.0,0.0,138.20,24.08,24.61,36.43,0.04,-272.75,-272.75,-35,545,-921,18.7,1.0,-38.3,18.8,1.1,-37.8,5.73,2.41,-34.2,23.8
2012-12-22 00:35:00,0.0,1.9284,0.0011,-1.00,0.00,-1.0,0.0,138.20,24.08,24.61,36.44,0.04,-272.75,-272.75,-35,545,-921,18.7,1.0,-38.4,18.8,1.1,-37.8,5.73,2.40,-34.2,23.8
2012-12-22 00:36:00,0.0,1.9288,0.0008,-1.00,0.00,-1.0,0.0,138.20,24.08,24.61,36.43,0.04,-272.74,-272.75,-35,545,-922,18.7,1.0,-38.3,18.8,1.1,-37.8,5.73,2.39,-34.2,23.8
2012-12-22 00:37:00,0.0,1.9290,0.0009,-1.00,0.00,-1.0,0.0,138.20,24.08,24.61,36.44,0.04,-272.74,-272.75,-35,545,-921,18.7,1.0,-38.3,18.8,1.1,-37.8,5.73,2.39,-34.2,23.8
2012-12-22 00:38:00,0.0,1.9293,0.0010,-1.00,0.00,-1.0,0.0,138.20,24.09,24.61,36.43,0.04,-272.75,-272.75,-35,545,-921,18.7,1.0,-38.3,18.8,1.1,-37.9,5.73,2.41,-34.2,23.8
2012-12-22 00:39:00,0.0,1.9293,0.0008,-1.00,0.00,-1.0,0.0,138.20,24.08,24.61,36.44,0.04,-272.74,-272.75,-35,545,-921,18.7,1.0,-38.4,18.8,1.1,-37.9,5.73,2.41,-34.2,23.8
2012-12-22 00:40:00,0.0,1.9288,0.0009,-1.00,0.00,-1.0,0.0,138.20,24.08,24.61,36.43,0.04,-272.74,-272.75,-35,545,-922,18.7,1.0,-38.6,18.8,1.0,-38.1,5.73,2.42,-34.2,23.8
2012-12-22 00:41:00,0.0,1.9295,0.0010,-1.00,0.00,-1.0,0.0,138.20,24.08,24.60,36.44,0.04,-272.75,-272.75,-35,545,-921,18.7,1.0,-38.6,18.8,1.0,-38.1,5.73,2.43,-34.2,23.8
2012-12-22 00:42:00,0.0,1.9286,0.0008,-1.00,0.00,-1.0,0.0,138.20,24.09,24.61,36.44,0.04,-272.74,-272.75,-35,545,-921,18.7,1.0,-38.6,18.8,1.0,-38.1,5.73,2.43,-34.2,23.8
2012-12-22 00:43:00,0.0,1.9292,0.0009,-1.00,0.00,-1.0,0.0,138.20,24.08,24.61,36.43,0.04,-272.74,-272.74,-35,545,-921,18.7,1.0,-38.6,18.8,1.1,-38.0,5.73,2.43,-34.2,23.9
2012-12-22 00:44:00,0.0,1.9294,0.0009,-1.00,0.00,-1.0,0.0,138.20,24.09,24.61,36.43,0.04,-272.75,-272.75,-35,545,-922,18.7,1.0,-38.6,18.8,1.1,-38.0,5.73,2.44,-34.2,23.8
2012-12-22 00:45:00,0.0,1.9299,0.0009,-1.00,0.00,-1.0,0.0,138.20,24.09,24.61,36.43,0.04,-272.75,-272.75,-35,545,-922,18.7,1.0,-38.4,18.8,1.1,-37.9,5.73,2.44,-34.2,23.8
2012-12-22 00:46:00,0.0,1.9298,0.0009,-1.00,0.00,-1.0,0.0,138.20,24.09,24.61,36.44,0.04,-272.74,-272.75,-35,545,-921,18.7,1.0,-38.3,18.8,1.1,-37.9,5.73,2.43,-34.2,23.8
2012-12-22 00:47:00,0.0,1.9300,0.0010,-1.00,0.00,-1.0,0.0,138.20,24.09,24.61,36.44,0.04,-272.75,-272.75,-35,545,-921,18.7,1.0,-38.1,18.8,1.1,-37.6,5.73,2.42,-34.2,23.9
2012-12-22 00:48:00,0.0,1.9300,0.0009,-1.00,0.00,-1.0,0.0,138.20,24.09,24.61,36.43,0.04,-272.75,-272.75,-35,545,-922,18.7,1.1,-38.0,18.8,1.1,-37.5,5.73,2.41,-34.2,23.8
2012-12-22 00:49:00,0.0,1.9297,0.0009,-1.00,0.00,-1.0,0.0,138.20,24.09,24.61,36.44,0.04,-272.74,-272.75,-35,545,-921,18.7,1.1,-37.8,18.8,1.1,-37.3,5.73,2.41,-34.2,23.8
2012-12-22 00:50:00,0.0,1.9299,0.0009,-1.00,0.00,-1.0,0.0,138.20,24.10,24.61,36.43,0.04,-272.74,-272.74,-35,545,-921,18.7,1.1,-37.8,18.8,1.1,-37.3,5.73,2.40,-34.2,23.8
2012-12-22 00:51:00,0.0,1.9295,0.0010,-1.00,0.00,-1.0,0.0,138.20,24.10,24.61,36.44,0.04,-272.75,-272.75,-35,545,-921,18.7,1.1,-37.8,18.8,1.1,-37.4,5.73,2.40,-34.2,23.8
2012-12-22 00:52:00,0.0,1.9300,0.0011,-1.00,0.00,-1.0,0.0,138.20,24.10,24.60,36.44,0.04,-272.75,-272.75,-35,545,-922,18.7,1.1,-37.8,18.8,1.1,-37.4,5.73,2.39,-34.2,23.8
2012-12-22 00:53:00,0.0,1.9298,0.0010,-1.00,0.00,-1.0,0.0,138.20,24.10,24.61,36.44,0.04,-272.74,-272.75,-35,545,-921,18.7,1.1,-37.8,18.8,1.1,-37.3,5.73,2.40,-34.2,23.8
2012-12-22 00:54:00,0.0,1.9296,0.0008,-1.00,0.00,-1.0,0.0,138.20,24.09,24.61,36.44,0.04,-272.74,-272.75,-35,545,-921,18.7,1.1,-37.9,18.8,1.1,-37.3,5.73,2.40,-34.2,23.8
2012-12-22 00:55:00,0.0,1.9293,0.0009,-1.00,0.00,-1.0,0.0,138.20,24.09,24.61,36.44,0.04,-272.75,-272.75,-35,545,-921,18.7,1.1,-38.0,18.8,1.1,-37.3,5.73,2.41,-34.2,23.8
2012-12-22 00:56:00,0.0,1.9299,0.0010,-1.00,0.00,-1.0,0.0,138.20,24.09,24.61,36.43,0.04,-272.74,-272.75,-35,545,-921,18.7,1.1,-38.0,18.8,1.1,-37.3,5.73,2.42,-34.2,23.8
2012-12-22 00:57:00,0.0,1.9298,0.0009,-1.00,0.00,-1.0,0.0,138.20,24.09,24.61,36.43,0.04,-272.75,-272.75,-35,545,-921,18.7,1.1,-37.8,18.8,1.1,-37.4,5.73,2.42,-34.3,23.8
2012-12-22 00:58:00,0.0,1.9298,0.0010,-1.00,0.00,-1.0,0.0,138.20,24.08,24.61,36.44,0.04,-272.74,-272.75,-35,545,-921,18.7,1.1,-37.6,18.8,1.1,-37.2,5.73,2.43,-34.2,23.8
2012-12-22 00:59:00,0.0,1.9293,0.0008,-1.00,0.00,-1.0,0.0,138.20,24.08,24.61,36.43,0.04,-272.75,-272.75,-35,545,-921,18.7,1.1,-37.5,18.8,1.2,-37.0,5.73,2.44,-34.2,23.8
2012-12-22 01:00:00,0.0,1.9299,0.0009,-1.00,0.00,-1.0,0.0,138.20,24.08,24.61,36.43,0.04,-272.75,-272.74,-35,545,-921,18.7,1.1,-37.3,18.8,1.2,-37.0,5.73,2.44,-34.2,23.8
2012-12-22 01:01:00,0.0,1.9297,0.0009,-1.00,0.00,-1.0,0.0,138.20,24.09,24.61,36.44,0.04,-272.74,-272.75,-35,545,-921,18.7,1.1,-37.6,18.8,1.2,-37.1,5.73,2.44,-34.2,23.8
2012-12-22 01:02:00,0.0,1.9296,0.0009,-1.00,0.00,-1.0,0.0,138.20,24.09,24.61,36.43,0.04,-272.75,-272.74,-35,545,-921,18.7,1.1,-37.6,18.8,1.2,-37.1,5.73,2.43,-34.3,23.8
2012-12-22 01:03:00,0.0,1.9295,0.0009,-1.00,0.00,-1.0,0.0,138.20,24.09,24.61,36.43,0.04,-272.74,-272.74,-35,545,-921,18.7,1.1,-37.6,18.8,1.2,-37.1,5.73,2.42,-34.3,23.8
2012-12-22 01:04:00,0.0,1.9297,0.0009,-1.00,0.00,-1.0,0.0,138.20,24.08,24.61,36.44,0.04,-272.74,-272.74,-35,545,-921,18.7,1.1,-37.6,18.8,1.2,-37.1,5.73,2.42,-34.2,23.8
2012-12-22 01:05:00,0.0,1.9298,0.0009,-1.00,0.00,-1.0,0.0,138.20,24.08,24.61,36.44,0.04,-272.75,-272.75,-35,545,-921,18.7,1.1,-37.5,18.8,1.2,-37.1,5.73,2.41,-34.3,23.8
2012-12-22 01:06:00,0.0,1.9299,0.0009,-1.00,0.00,-1.0,0.0,138.20,24.08,24.61,36.44,0.04,-272.74,-272.74,-35,545,-921,18.7,1.1,-37.6,18.8,1.2,-37.1,5.73,2.41,-34.2,23.8
2012-12-22 01:07:00,0.0,1.9297,0.0009,-1.00,0.00,-1.0,0.0,138.20,24.08,24.61,36.43,0.04,-272.74,-272.75,-35,545,-921,18.7,1.1,-37.6,18.8,1.2,-37.1,5.73,2.40,-34.3,23.8
2012-12-22 01:08:00,0.0,1.9289,0.0007,-1.00,0.00,-1.0,0.0,138.20,24.08,24.61,36.44,0.04,-272.75,-272.75,-35,545,-921,18.7,1.1,-37.4,18.8,1.2,-37.1,5.73,2.40,-34.3,23.8
2012-12-22 01:09:00,0.0,1.9288,0.0008,-1.00,0.00,-1.0,0.0,138.20,24.07,24.61,36.44,0.04,-272.75,-272.74,-35,545,-921,18.7,1.1,-37.3,18.8,1.2,-36.9,5.73,2.40,-34.3,23.8
2012-12-22 01:10:00,0.0,1.9289,0.0009,-1.00,0.00,-1.0,0.0,138.20,24.07,24.61,36.44,0.04,-272.75,-272.74,-35,545,-921,18.7,1.1,-37.5,18.8,1.2,-37.0,5.73,2.40,-34.3,23.9
2012-12-22 01:11:00,0.0,1.9282,0.0008,-1.00,0.00,-1.0,0.0,138.20,24.07,24.61,36.44,0.04,-272.74,-272.75,-35,545,-921,18.7,1.1,-37.6,18.8,1.2,-37.1,5.73,2.40,-34.3,23.8
2012-12-22 01:12:00,0.0,1.9284,0.0009,-1.00,0.00,-1.0,0.0,138.20,24.07,24.61,36.44,0.04,-272.74,-272.75,-35,545,-921,18.7,1.1,-37.5,18.8,1.2,-37.1,5.73,2.41,-34.3,23.8
2012-12-22 01:13:00,0.0,1.9287,0.0008,-1.00,0.00,-1.0,0.0,138.20,24.07,24.61,36.43,0.04,-272.74,-272.74,-35,545,-921,18.7,1.1,-37.8,18.8,1.1,-37.3,5.73,2.42,-34.3,23.8
2012-12-22 01:14:00,0.0,1.9289,0.0010,-1.00,0.00,-1.0,0.0,138.20,24.06,24.61,36.44,0.04,-272.75,-272.75,-35,545,-921,18.7,1.1,-37.8,18.8,1.1,-37.4,5.73,2.42,-34.3,23.8
2012-12-22 01:15:00,0.0,1.9282,0.0009,-1.00,0.00,-1.0,0.0,138.20,24.07,24.61,36.43,0.04,-272.75,-272.75,-35,545,-921,18.7,1.1,-37.8,18.8,1.1,-37.3,5.73,2.42,-34.3,23.8
2012-12-22 01:16:00,0.0,1.9285,0.0011,-1.00,0.00,-1.0,0.0,138.20,24.07,24.61,36.44,0.04,-272.74,-272.75,-35,545,-921,18.7,1.1,-38.0,18.8,1.1,-37.3,5.73,2.43,-34.3,23.8
2012-12-22 01:17:00,0.0,1.9285,0.0009,-1.00,0.00,-1.0,0.0,138.20,24.07,24.61,36.44,0.04,-272.75,-272.74,-35,545,-921,18.7,1.0,-38.1,18.8,1.1,-37.3,5.73,2.43,-34.2,23.8
2012-12-22 01:18:00,0.0,1.9286,0.0010,-1.00,0.00,-1.0,0.0,138.20,24.06,24.61,36.43,0.04,-272.75,-272.75,-35,545,-921,18.7,1.1,-38.0,18.8,1.1,-37.3,5.73,2.44,-34.2,23.8
2012-12-22 01:19:00,0.0,1.9282,0.0009,-1.00,0.00,-1.0,0.0,138.20,24.06,24.61,36.44,0.04,-272.74,-272.74,-35,545,-920,18.7,1.1,-37.9,18.8,1.1,-37.3,5.73,2.43,-34.3,23.8
2012-12-22 01:20:00,0.0,1.9286,0.0008,-1.00,0.00,-1.0,0.0,138.20,24.06,24.61,36.43,0.04,-272.75,-272.74,-35,545,-921,18.7,1.1,-37.8,18.8,1.1,-37.3,5.73,2.42,-34.2,23.8
2012-12-22 01:21:00,0.0,1.9292,0.0009,-1.00,0.00,-1.0,0.0,138.20,24.06,24.60,36.43,0.04,-272.75,-272.75,-35,545,-921,18.7,1.1,-37.9,18.8,1.1,-37.3,5.73,2.42,-34.3,23.8
2012-12-22 01:22:00,0.0,1.9296,0.0011,-1.00,0.00,-1.0,0.0,138.20,24.07,24.61,36.44,0.04,-272.75,-272.74,-35,545,-921,18.7,1.1,-37.8,18.8,1.1,-37.3,5.73,2.41,-34.2,23.8
2012-12-22 01:23:00,0.0,1.9298,0.0008,-1.00,0.00,-1.0,0.0,138.20,24.08,24.60,36.44,0.04,-272.74,-272.75,-35,545,-920,18.7,1.1,-37.8,18.8,1.1,-37.3,5.73,2.41,-34.2,23.8
2012-12-22 01:24:00,0.0,1.9292,0.0008,-1.00,0.00,-1.0,0.0,138.20,24.08,24.61,36.44,0.04,-272.74,-272.74,-35,545,-921,18.7,1.1,-37.8,18.8,1.1,-37.3,5.73,2.41,-34.3,23.8
2012-12-22 01:25:00,0.0,1.9286,0.0010,-1.00,0.00,-1.0,0.0,138.20,24.07,24.61,36.43,0.04,-272.75,-272.75,-35,545,-921,18.7,1.1,-37.8,18.8,1.1,-37.3,5.73,2.40,-34.2,23.8
2012-12-22 01:26:00,0.0,1.9281,0.0010,-1.00,0.00,-1.0,0.0,138.20,24.07,24.61,36.44,0.04,-272.74,-272.75,-35,545,-921,18.7,1.1,-37.8,18.8,1.1,-37.3,5.73,2.40,-34.2,23.8
2012-12-22 01:27:00,0.0,1.9285,0.0008,-1.00,0.00,-1.0,0.0,138.20,24.06,24.61,36.43,0.04,-272.74,-272.74,-35,545,-920,18.7,1.1,-37.6,18.8,1.2,-37.1,5.73,2.40,-34.3,23.8
2012-12-22 01:28:00,0.0,1.9286,0.0010,-1.00,0.00,-1.0,0.0,138.20,24.05,24.61,36.44,0.04,-272.75,-272.75,-35,545,-920,18.7,1.1,-37.6,18.8,1.2,-37.1,5.73,2.41,-34.3,23.8
2012-12-22 01:29:00,0.0,1.9278,0.0008,-1.00,0.00,-1.0,0.0,138.20,24.05,24.61,36.43,0.04,-272.75,-272.75,-35,545,-921,18.7,1.1,-37.7,18.8,1.1,-37.2,5.73,2.40,-34.3,23.8
2012-12-22 01:30:00,0.0,1.9276,0.0010,-1.00,0.00,-1.0,0.0,138.20,24.05,24.61,36.43,0.04,-272.74,-272.74,-35,545,-920,18.7,1.1,-38.1,18.8,1.1,-37.5,5.73,2.40,-34.3,23.8
2012-12-22 01:31:00,0.0,1.9271,0.0008,-1.00,0.00,-1.0,0.0,138.20,24.05,24.61,36.44,0.04,-272.75,-272.74,-35,545,-921,18.7,1.0,-38.1,18.8,1.1,-37.6,5.73,2.40,-34.3,23.8
2012-12-22 01:32:00,0.0,1.9266,0.0007,-1.00,0.00,-1.0,0.0,138.20,24.04,24.61,36.43,0.04,-272.75,-272.75,-35,545,-920,18.7,1.0,-38.3,18.8,1.1,-37.8,5.73,2.42,-34.3,23.9
2012-12-22 01:33:00,0.0,1.9270,0.0010,-1.00,0.00,-1.0,0.0,138.20,24.04,24.61,36.44,0.04,-272.74,-272.74,-35,545,-920,18.7,1.0,-38.3,18.8,1.1,-37.8,5.73,2.42,-34.3,23.8
2012-12-22 01:34:00,0.0,1.9265,0.0010,-1.00,0.00,-1.0,0.0,138.20,24.04,24.61,36.43,0.04,-272.74,-272.74,-35,545,-921,18.7,1.0,-38.3,18.8,1.1,-37.8,5.73,2.43,-34.3,23.8
2012-12-22 01:35:00,0.0,1.9267,0.0010,-1.00,0.00,-1.0,0.0,138.20,24.03,24.61,36.43,0.04,-272.75,-272.75,-35,545,-921,18.7,1.0,-38.3,18.8,1.1,-37.8,5.73,2.43,-34.3,23.8
2012-12-22 01:36:00,0.0,1.9270,0.0009,-1.00,0.00,-1.0,0.0,138.20,24.03,24.61,36.44,0.04,-272.75,-272.75,-35,545,-921,18.7,1.0,-38.3,18.8,1.1,-37.8,5.73,2.43,-34.3,23.9
2012-12-22 01:37:00,0.0,1.9277,0.0009,-1.00,0.00,-1.0,0.0,138.20,24.04,24.61,36.44,0.04,-272.74,-272.74,-35,545,-921,18.7,1.0,-38.3,18.8,1.1,-37.8,5.73,2.43,-34.3,23.9
2012-12-22 01:38:00,0.0,1.9274,0.0009,-1.00,0.00,-1.0,0.0,138.20,24.05,24.61,36.43,0.04,-272.75,-272.75,-35,545,-921,18.7,1.0,-38.3,18.8,1.1,-37.8,5.73,2.43,-34.3,23.8
2012-12-22 01:39:00,0.0,1.9281,0.0009,-1.00,0.00,-1.0,0.0,138.20,24.05,24.61,36.43,0.04,-272.75,-272.75,-35,545,-921,18.7,1.0,-38.1,18.8,1.1,-37.6,5.73,2.43,-34.2,23.8
2012-12-22 01:40:00,0.0,1.9283,0.0009,-1.00,0.00,-1.0,0.0,138.20,24.06,24.61,36.43,0.04,-272.74,-272.74,-35,545,-921,18.7,1.1,-38.1,18.8,1.1,-37.6,5.73,2.43,-34.2,23.8
2012-12-22 01:41:00,0.0,1.9284,0.0009,-1.00,0.00,-1.0,0.0,138.20,24.06,24.61,36.44,0.04,-272.75,-272.74,-35,545,-921,18.7,1.1,-38.1,18.8,1.1,-37.6,5.73,2.42,-34.2,23.8
2012-12-22 01:42:00,0.0,1.9283,0.0011,-1.00,0.00,-1.0,0.0,138.20,24.05,24.61,36.43,0.04,-272.75,-272.75,-35,545,-921,18.7,1.1,-38.1,18.8,1.1,-37.6,5.73,2.42,-34.2,23.8
2012-12-22 01:43:00,0.0,1.9283,0.0008,-1.00,0.00,-1.0,0.0,138.20,24.05,24.61,36.43,0.04,-272.74,-272.74,-35,545,-921,18.7,1.0,-38.1,18.8,1.1,-37.6,5.73,2.41,-34.2,23.8
2012-12-22 01:44:00,0.0,1.9284,0.0009,-1.00,0.00,-1.0,0.0,138.20,24.06,24.61,36.44,0.04,-272.74,-272.75,-35,545,-921,18.7,1.1,-38.1,18.8,1.1,-37.6,5.73,2.40,-34.2,23.8
2012-12-22 01:45:00,0.0,1.9284,0.0011,-1.00,0.00,-1.0,0.0,138.20,24.06,24.61,36.44,0.04,-272.74,-272.75,-35,545,-921,18.7,1.1,-38.0,18.8,1.1,-37.6,5.73,2.40,-34.2,23.8
2012-12-22 01:46:00,0.0,1.9290,0.0010,-1.00,0.00,-1.0,0.0,138.20,24.07,24.60,36.44,0.04,-272.74,-272.75,-35,545,-921,18.7,1.1,-38.1,18.8,1.1,-37.5,5.73,2.40,-34.2,23.8
2012-12-22 01:47:00,0.0,1.9289,0.0011,-1.00,0.00,-1.0,0.0,138.20,24.07,24.61,36.43,0.04,-272.74,-272.74,-35,545,-921,18.7,1.1,-38.1,18.8,1.1,-37.3,5.73,2.40,-34.2,23.8
2012-12-22 01:48:00,0.0,1.9282,0.0008,-1.00,0.00,-1.0,0.0,138.20,24.06,24.61,36.44,0.04,-272.75,-272.75,-35,545,-921,18.7,1.1,-38.1,18.8,1.1,-37.3,5.73,2.40,-34.3,23.8
2012-12-22 01:49:00,0.0,1.9276,0.0009,-1.00,0.00,-1.0,0.0,138.20,24.06,24.61,36.44,0.04,-272.75,-272.75,-35,545,-921,18.7,1.1,-37.8,18.8,1.1,-37.3,5.73,2.41,-34.2,23.8
2012-12-22 01:50:00,0.0,1.9276,0.0011,-1.00,0.00,-1.0,0.0,138.20,24.05,24.61,36.43,0.04,-272.75,-272.74,-35,545,-921,18.7,1.1,-37.8,18.8,1.1,-37.3,5.73,2.41,-34.2,23.8
2012-12-22 01:51:00,0.0,1.9267,0.0009,-1.00,0.00,-1.0,0.0,138.20,24.05,24.61,36.43,0.04,-272.74,-272.75,-35,545,-921,18.7,1.1,-37.8,18.8,1.1,-37.3,5.73,2.42,-34.2,23.8
2012-12-22 01:52:00,0.0,1.9272,0.0009,-1.00,0.00,-1.0,0.0,138.20,24.04,24.61,36.44,0.04,-272.74,-272.75,-35,545,-921,18.7,1.1,-37.8,18.8,1.1,-37.3,5.73,2.43,-34.2,23.8
2012-12-22 01:53:00,0.0,1.9275,0.0011,-1.00,0.00,-1.0,0.0,138.20,24.04,24.60,36.44,0.04,-272.75,-272.75,-35,545,-921,18.7,1.1,-37.8,18.8,1.1,-37.3,5.73,2.43,-34.2,23.8
2012-12-22 01:54:00,0.0,1.9273,0.0008,-1.00,0.00,-1.0,0.0,138.20,24.04,24.61,36.44,0.04,-272.74,-272.75,-35,545,-921,18.7,1.1,-37.8,18.8,1.1,-37.3,5.73,2.44,-34.3,23.8
2012-12-22 01:55:00,0.0,1.9268,0.0010,-1.00,0.00,-1.0,0.0,138.20,24.03,24.61,36.44,0.04,-272.74,-272.74,-35,545,-921,18.7,1.1,-37.8,18.8,1.1,-37.3,5.73,2.43,-34.3,23.8
2012-12-22 01:56:00,0.0,1.9272,0.0011,-1.00,0.00,-1.0,0.0,138.20,24.03,24.61,36.43,0.04,-272.75,-272.75,-35,545,-921,18.7,1.1,-37.6,18.8,1.2,-37.1,5.73,2.43,-34.3,23.9
2012-12-22 01:57:00,0.0,1.9277,0.0009,-1.00,0.00,-1.0,0.0,138.20,24.04,24.60,36.44,0.04,-272.74,-272.74,-35,545,-921,18.7,1.1,-37.6,18.8,1.2,-37.1,5.73,2.43,-34.2,23.9
2012-12-22 01:58:00,0.0,1.9270,0.0008,-1.00,0.00,-1.0,0.0,138.20,24.04,24.61,36.43,0.04,-272.75,-272.74,-35,545,-921,18.7,1.1,-37.6,18.8,1.2,-37.1,5.73,2.42,-34.2,23.9
2012-12-22 01:59:00,0.0,1.9266,0.0010,-1.00,0.00,-1.0,0.0,138.20,24.04,24.61,36.43,0.04,-272.75,-272.74,-35,545,-921,18.7,1.1,-37.6,18.8,1.2,-37.1,5.73,2.42,-34.2,23.9
2012-12-22 02:00:00,0.0,1.9267,0.0010,-1.00,0.00,-1.0,0.0,138.20,24.03,24.61,36.44,0.04,-272.75,-272.75,-35,545,-921,18.7,1.1,-37.6,18.8,1.2,-37.0,5.73,2.41,-34.2,23.9
2012-12-22 02:01:00,0.0,1.9271,0.0009,-1.00,0.00,-1.0,0.0,138.20,24.04,24.61,36.43,0.04,-272.74,-272.75,-35,545,-921,18.7,1.1,-37.6,18.8,1.2,-37.1,5.73,2.41,-34.2,23.8
2012-12-22 02:02:00,0.0,1.9279,0.0009,-1.00,0.00,-1.0,0.0,138.20,24.04,24.61,36.44,0.04,-272.75,-272.75,-35,545,-921,18.7,1.1,-37.5,18.8,1.2,-37.1,5.73,2.40,-34.2,23.8
2012-12-22 02:03:00,0.0,1.9278,0.0008,-1.00,0.00,-1.0,0.0,138.20,24.04,24.61,36.43,0.04,-272.75,-272.75,-35,545,-921,18.7,1.1,-37.5,18.8,1.2,-37.1,5.73,2.40,-34.2,23.9
2012-12-22 02:04:00,0.0,1.9281,0.0009,-1.00,0.00,-1.0,0.0,138.20,24.04,24.61,36.44,0.04,-272.74,-272.74,-35,545,-921,18.7,1.1,-37.4,18.8,1.2,-36.9,5.73,2.40,-34.2,23.8
2012-12-22 02:05:00,0.0,1.9280,0.0009,-1.00,0.00,-1.0,0.0,138.20,24.04,24.61,36.44,0.04,-272.75,-272.75,-35,545,-921,18.7,1.1,-37.4,18.8,1.2,-36.9,5.73,2.41,-34.2,23.8
2012-12-22 02:06:00,0.0,1.9281,0.0009,-1.00,0.00,-1.0,0.0,138.20,24.05,24.61,36.43,0.04,-272.75,-272.75,-35,545,-921,18.7,1.1,-37.3,18.8,1.2,-36.8,5.73,2.41,-34.2,23.8
2012-12-22 02:07:00,0.0,1.9282,0.0008,-1.00,0.00,-1.0,0.0,138.20,24.05,24.61,36.43,0.04,-272.74,-272.75,-35,545,-921,18.7,1.1,-37.4,18.8,1.2,-36.8,5.73,2.40,-34.2,23.8
2012-12-22 02:08:00,0.0,1.9281,0.0007,-1.00,0.00,-1.0,0.0,138.20,24.05,24.61,36.44,0.04,-272.74,-272.74,-35,545,-921,18.7,1.1,-37.4,18.8,1.2,-36.9,5.73,2.41,-34.2,23.8
2012-12-22 02:09:00,0.0,1.9277,0.0012,-1.00,0.00,-1.0,0.0,138.20,24.05,24.61,36.43,0.04,-272.75,-272.75,-35,545,-921,18.7,1.1,-37.3,18.8,1.2,-36.9,5.73,2.41,-34.2,23.8
2012-12-22 02:10:00,0.0,1.9283,0.0009,-1.00,0.00,-1.0,0.0,138.20,24.06,24.61,36.44,0.04,-272.75,-272.74,-35,545,-921,18.7,1.1,-37.3,18.8,1.2,-36.8,5.73,2.42,-34.2,23.8
2012-12-22 02:11:00,0.0,1.9280,0.0009,-1.00,0.00,-1.0,0.0,138.20,24.06,24.61,36.43,0.04,-272.75,-272.74,-35,545,-921,18.7,1.1,-37.3,18.8,1.2,-36.9,5.73,2.43,-34.2,23.8
2012-12-22 02:12:00,0.0,1.9283,0.0009,-1.00,0.00,-1.0,0.0,138.20,24.05,24.61,36.44,0.04,-272.75,-272.74,-35,545,-920,18.7,1.1,-37.3,18.8,1.2,-36.9,5.73,2.43,-34.3,23.8
2012-12-22 02:13:00,0.0,1.9282,0.0009,-1.00,0.00,-1.0,0.0,138.20,24.05,24.61,36.43,0.04,-272.74,-272.75,-35,545,-920,18.7,1.1,-37.4,18.8,1.2,-36.8,5.73,2.43,-34.3,23.8
2012-12-22 02:14:00,0.0,1.9293,0.0010,-1.00,0.00,-1.0,0.0,138.20,24.06,24.61,36.44,0.04,-272.74,-272.74,-35,545,-921,18.7,1.1,-37.4,18.8,1.2,-36.9,5.73,2.43,-34.3,23.8
2012-12-22 02:15:00,0.0,1.9306,0.0013,-1.00,0.00,-1.0,0.0,138.20,24.06,24.61,36.44,0.04,-272.75,-272.74,-35,545,-921,18.7,1.1,-37.4,18.8,1.2,-36.9,5.73,2.43,-34.3,23.8
2012-12-22 02:16:00,0.0,1.9340,0.0019,-1.00,0.00,-1.0,0.0,138.20,24.06,24.61,36.44,0.04,-272.75,-272.75,-35,545,-921,18.7,1.1,-37.3,18.8,1.2,-36.8,5.73,2.43,-34.2,23.8
2012-12-22 02:17:00,0.0,1.9356,0.0012,-1.00,0.00,-1.0,0.0,138.20,24.07,24.61,36.44,0.04,-272.74,-272.75,-35,545,-920,18.7,1.1,-37.5,18.8,1.2,-37.0,5.73,2.43,-34.2,23.8
2012-12-22 02:18:00,0.0,1.9331,0.0010,-1.00,0.00,-1.0,0.0,138.20,24.06,24.60,36.44,0.04,-272.75,-272.75,-35,545,-921,18.7,1.1,-37.6,18.8,1.2,-37.1,5.73,2.42,-34.2,23.8
2012-12-22 02:19:00,0.0,1.9349,0.0014,-1.00,0.00,-1.0,0.0,138.20,24.05,24.61,36.44,0.04,-272.75,-272.75,-35,545,-921,18.7,1.1,-37.6,18.8,1.2,-37.0,5.73,2.41,-34.3,23.8